THOR ABLESTAR DEB, 653

Orbit data source: Space-Track

THOR ABLESTAR DEB, 653 is space debris in LEO originally from a launch on Thu, 29 Jun 1961 UTC launched from the Air Force Eastern Test Range (AFETR). Debris objects in space refer to the collection of defunct objects orbiting the Earth. Examples of debris include non-operational satellites, rocket bodies, and fragments generated from explosions, collisions, or faulty payload assembly.

Loading next visibility...
Identifier
653, 1961-015HE
Orbit
LEO
Country
Flag of USUS
Related business
Manufacturer
Unknown
Mission
Spacecraft
Bus & Motor
Unknown
Mass
Unknown
Launch date (UTC)
1961-06-29 (65 years ago)
Launch vehicle
Unknown
Launch site
Air Force Eastern Test Range (AFETR)
Object type
Payload
Rocket body
Debris
Shape & HBR
Unknown shape, 0.1 m
Radar Cross Section
Medium (>0.1 m² and <1 m²)

Expand to show TLE details & history
Last TLE update: 1 day ago

TLE from 1 day ago
0 THOR ABLESTAR DEB
1   653U 61015HE  26257.60085272  .00000858  00000-0  95418-3 0  9990
2   653  67.4509 323.5035 0160797 266.3474 244.8476 13.70528121230134
Epoch: 2026-09-14T14:25Z
TLE epoch observation values (Epoch: 2026-09-14T14:25:13.675Z)
Latitude
27.96964°
Longitude
-79.05369°
Altitude
1,052.275 km
Speed
7.303 km/s
True Right ascension
08h 43m 19s
True Declination
27° 49' 59"
Sunlit
Object was in daylight at epoch
Visualization orbit readout
Latitude
Unknown
Longitude
Unknown
Altitude
Unknown
Speed
Unknown
Apparent Right ascension
Unknown
Apparent Declination
Unknown
Sunlit
N/A
Visualization observer readout
Local Sidereal Time
12:17:56
Azimuth
Unknown
Elevation
Unknown
Doppler factor
Unknown
Orbital elements
Apogee altitude
1,114.585 km
Perigee altitude
877.437 km
Semi-major axis
7,374.148 km
Eccentricity
0.01608
Inclination
67.4509°
RAAN
323.5035°
Arg. of periapsis
266.3474°
True anomaly
243.19408°
Mean anomaly
244.8476°
Eccentric anomaly
244.01941°
Mean motion
3.42748 °/min
Orbital period
105.03 mins
BSTAR
0.00095418
Loading maneuver chart data...
Computing Atmospheric mass density...

Documentation

Showing up to 5 results
|